Zurück zum Katalog

SKYSAT C1

AktivWissenschaftSSO
NORAD 41601·PAYLOAD·🇺🇸 United States

Gestartet Jun 22, 2016 von Satish Dhawan Space Centre

Loading…

Nächste Überflüge (nächste 24 Stunden)

TLE

AktuellSource: CelesTrak SupGP

Epoche: Sep 14, 2026, 20:49 UTC

1 41601C 16040C   26257.86789352  .00006362  00000+0  17289-3 0  2576
2 41601  96.9514 284.7829 0004130  76.1890 292.6166 15.37605537    12

Verfolge SKYSAT C1 in Echtzeit mit AllMySat

Download on the App Store